CCA8351 ZSHC-ZGSD

Flight info

Callsign CCA8351
Flight time N/A
Altitude 27600
Route ELNEX5E ELNEX A599 PLT W19 ATKAV W20 SALIV R473 NOLON W90 POU W7 ZUH
Aircraft A321/M-SDE3FGHIRWY/LB1

Departure

Time N/A
Airport Hangzhou Xiaoshan International Airport (ZSHC)

Arrival

Time 2026-04-25 14:57
Airport Zhuhai Jinwan Airport (ZGSD)
Time Latitude Longitude Altitude Speed Heading
2026-04-25 13:23 29.35059 119.13269 24825 ft 441 kts 231°
2026-04-25 13:24 29.32983 119.10639 25237 ft 442 kts 231°
2026-04-25 13:24 29.30916 119.08028 25666 ft 442 kts 231°
2026-04-25 13:24 29.28847 119.05420 26082 ft 443 kts 231°
2026-04-25 13:24 29.26771 119.02805 26487 ft 444 kts 231°
2026-04-25 13:25 29.24696 119.00191 26893 ft 444 kts 231°
2026-04-25 13:25 29.22620 118.97571 27275 ft 444 kts 231°
2026-04-25 13:25 29.20550 118.94959 27580 ft 443 kts 231°
2026-04-25 13:25 29.18482 118.92353 27649 ft 439 kts 231°
2026-04-25 13:26 29.16439 118.89785 27660 ft 434 kts 232°
2026-04-25 13:26 29.14440 118.87268 27660 ft 433 kts 232°
2026-04-25 13:26 29.12419 118.84719 27658 ft 433 kts 232°
2026-04-25 13:26 29.10396 118.82169 27658 ft 432 kts 232°
2026-04-25 13:27 29.08374 118.79626 27660 ft 432 kts 232°
2026-04-25 13:27 29.06351 118.77089 27657 ft 432 kts 231°
2026-04-25 13:27 29.04321 118.74548 27660 ft 432 kts 231°
2026-04-25 13:27 29.02304 118.72025 27664 ft 428 kts 232°
2026-04-25 13:28 29.00305 118.69527 27662 ft 425 kts 232°
2026-04-25 13:28 28.98958 118.67842 27665 ft 425 kts 232°
2026-04-25 13:28 28.96317 118.64537 27657 ft 425 kts 232°
2026-04-25 13:28 28.94325 118.62041 27632 ft 427 kts 232°
2026-04-25 13:29 28.92321 118.59532 27625 ft 428 kts 232°
2026-04-25 13:29 28.90308 118.57016 27626 ft 429 kts 232°
2026-04-25 13:29 28.88292 118.54497 27628 ft 430 kts 232°
2026-04-25 13:30 28.84243 118.49448 27598 ft 432 kts 232°
2026-04-25 13:30 28.82222 118.46933 27647 ft 429 kts 232°
2026-04-25 13:30 28.80211 118.44434 27660 ft 427 kts 232°
2026-04-25 13:31 28.76205 118.39463 27671 ft 425 kts 232°
2026-04-25 13:31 28.74206 118.36980 27670 ft 424 kts 232°
2026-04-25 13:31 28.72215 118.34502 27651 ft 425 kts 232°
2026-04-25 13:31 28.70213 118.32014 27638 ft 426 kts 232°
2026-04-25 13:32 28.68888 118.30369 27634 ft 427 kts 232°
2026-04-25 13:32 28.68208 118.29525 27632 ft 427 kts 232°
2026-04-25 13:32 28.64174 118.24529 27604 ft 429 kts 232°
2026-04-25 13:32 28.62160 118.22042 27637 ft 427 kts 232°
2026-04-25 13:33 28.60146 118.19562 27647 ft 426 kts 232°
2026-04-25 13:33 28.58136 118.17082 27653 ft 425 kts 232°
2026-04-25 13:33 28.56135 118.14609 27656 ft 425 kts 232°
2026-04-25 13:33 28.55458 118.13772 27656 ft 425 kts 232°
2026-04-25 13:34 28.50143 118.07205 27657 ft 424 kts 232°
2026-04-25 13:34 28.48146 118.04742 27636 ft 424 kts 232°
2026-04-25 13:34 28.46137 118.02268 27630 ft 425 kts 232°
2026-04-25 13:35 28.44131 117.99800 27628 ft 426 kts 232°
2026-04-25 13:35 28.42803 117.98165 27622 ft 426 kts 233°
2026-04-25 13:35 28.42121 117.97326 27631 ft 426 kts 233°
2026-04-25 13:36 28.31629 117.84961 27664 ft 425 kts 231°
2026-04-25 13:36 28.29560 117.82554 27662 ft 425 kts 231°
2026-04-25 13:37 28.27501 117.80151 27659 ft 425 kts 231°
2026-04-25 13:37 28.25448 117.77748 27663 ft 425 kts 231°
2026-04-25 13:37 28.23394 117.75339 27662 ft 425 kts 231°
2026-04-25 13:37 28.21342 117.72933 27660 ft 425 kts 231°
2026-04-25 13:38 28.19285 117.70528 27660 ft 425 kts 231°
2026-04-25 13:38 28.17228 117.68128 27663 ft 424 kts 231°
2026-04-25 13:38 28.15174 117.65728 27663 ft 425 kts 231°
2026-04-25 13:38 28.13117 117.63324 27662 ft 425 kts 231°
2026-04-25 13:39 28.11064 117.60921 27658 ft 425 kts 231°
2026-04-25 13:39 28.09003 117.58516 27652 ft 425 kts 231°
2026-04-25 13:39 28.06945 117.56120 27653 ft 425 kts 231°
2026-04-25 13:39 28.04880 117.53719 27653 ft 425 kts 231°
2026-04-25 13:40 28.02822 117.51317 27651 ft 424 kts 231°
2026-04-25 13:40 28.00773 117.48920 27666 ft 423 kts 232°
2026-04-25 13:40 27.98732 117.46526 27669 ft 422 kts 232°
2026-04-25 13:40 27.96693 117.44132 27673 ft 422 kts 232°
2026-04-25 13:41 27.94654 117.41742 27676 ft 423 kts 232°
2026-04-25 13:41 27.92608 117.39351 27674 ft 423 kts 231°
2026-04-25 13:41 27.91227 117.37742 27664 ft 422 kts 231°
2026-04-25 13:41 27.88522 117.34591 27673 ft 422 kts 232°
2026-04-25 13:42 27.86475 117.32204 27661 ft 423 kts 232°
2026-04-25 13:42 27.84428 117.29818 27668 ft 423 kts 232°
2026-04-25 13:42 27.82384 117.27438 27661 ft 423 kts 232°
2026-04-25 13:42 27.80334 117.25055 27631 ft 422 kts 232°
2026-04-25 13:43 27.78296 117.22691 27648 ft 419 kts 232°
2026-04-25 13:43 27.76262 117.20333 27659 ft 417 kts 232°
2026-04-25 13:43 27.74252 117.17998 27664 ft 417 kts 232°
2026-04-25 13:43 27.72222 117.15636 27659 ft 418 kts 232°
2026-04-25 13:44 27.70197 117.13282 27653 ft 419 kts 232°
2026-04-25 13:44 27.68163 117.10919 27643 ft 420 kts 232°
2026-04-25 13:44 27.66124 117.08552 27642 ft 421 kts 232°
2026-04-25 13:44 27.64084 117.06184 27642 ft 421 kts 232°
2026-04-25 13:45 27.62040 117.03815 27642 ft 422 kts 232°
2026-04-25 13:45 27.59989 117.01443 27642 ft 422 kts 232°
2026-04-25 13:45 27.57938 116.99077 27631 ft 420 kts 232°
2026-04-25 13:45 27.55899 116.96727 27656 ft 420 kts 232°
2026-04-25 13:46 27.53864 116.94376 27662 ft 419 kts 232°
2026-04-25 13:46 27.51829 116.92025 27671 ft 418 kts 232°
2026-04-25 13:46 27.49808 116.89681 27669 ft 417 kts 233°
2026-04-25 13:46 27.47792 116.87320 27668 ft 417 kts 233°
2026-04-25 13:47 27.45787 116.84962 27656 ft 417 kts 233°
2026-04-25 13:47 27.43787 116.82612 27637 ft 418 kts 233°
2026-04-25 13:47 27.41765 116.80237 27637 ft 419 kts 233°
2026-04-25 13:47 27.39743 116.77869 27631 ft 420 kts 233°
2026-04-25 13:48 27.37719 116.75507 27597 ft 420 kts 233°
2026-04-25 13:48 27.35691 116.73146 27636 ft 420 kts 233°
2026-04-25 13:48 27.33684 116.70815 27649 ft 420 kts 233°
2026-04-25 13:48 27.31653 116.68457 27658 ft 419 kts 233°
2026-04-25 13:49 27.29628 116.66102 27662 ft 419 kts 233°
2026-04-25 13:49 27.27602 116.63745 27664 ft 419 kts 233°
2026-04-25 13:49 27.25580 116.61391 27664 ft 419 kts 233°
2026-04-25 13:49 27.23557 116.59042 27664 ft 419 kts 233°
2026-04-25 13:50 27.21530 116.56691 27666 ft 419 kts 233°
2026-04-25 13:50 27.19512 116.54331 27643 ft 419 kts 233°
2026-04-25 13:50 27.17521 116.51943 27638 ft 419 kts 234°
2026-04-25 13:50 27.15546 116.49535 27614 ft 419 kts 234°
2026-04-25 13:51 27.14214 116.47903 27621 ft 419 kts 234°
2026-04-25 13:51 27.12245 116.45494 27631 ft 419 kts 234°
2026-04-25 13:51 27.10270 116.43085 27639 ft 419 kts 234°
2026-04-25 13:51 27.08291 116.40678 27647 ft 419 kts 234°
2026-04-25 13:52 27.06314 116.38280 27656 ft 419 kts 234°
2026-04-25 13:52 27.04330 116.35878 27660 ft 419 kts 234°
2026-04-25 13:52 27.02361 116.33498 27662 ft 419 kts 234°
2026-04-25 13:52 27.00359 116.31082 27665 ft 419 kts 234°
2026-04-25 13:53 26.98400 116.28720 27669 ft 419 kts 234°
2026-04-25 13:53 26.96387 116.26294 27669 ft 419 kts 234°
2026-04-25 13:53 26.94428 116.23933 27650 ft 420 kts 234°
2026-04-25 13:53 26.92440 116.21537 27624 ft 420 kts 234°
2026-04-25 13:54 26.90454 116.19144 27631 ft 420 kts 234°
2026-04-25 13:54 26.88460 116.16744 27632 ft 420 kts 234°
2026-04-25 13:54 26.86466 116.14346 27643 ft 421 kts 234°
2026-04-25 13:54 26.84469 116.11945 27650 ft 421 kts 234°
2026-04-25 13:55 26.82475 116.09549 27649 ft 421 kts 234°
2026-04-25 13:55 26.80479 116.07154 27652 ft 421 kts 234°
2026-04-25 13:55 26.78481 116.04759 27661 ft 421 kts 234°
2026-04-25 13:55 26.76485 116.02365 27661 ft 421 kts 234°
2026-04-25 13:56 26.74488 115.99964 27664 ft 421 kts 234°
2026-04-25 13:56 26.72498 115.97571 27670 ft 421 kts 234°
2026-04-25 13:56 26.70505 115.95172 27651 ft 420 kts 234°
2026-04-25 13:56 26.68526 115.92781 27652 ft 420 kts 234°
2026-04-25 13:57 26.66548 115.90383 27650 ft 420 kts 234°
2026-04-25 13:57 26.65210 115.88759 27650 ft 420 kts 234°
2026-04-25 13:57 26.62589 115.85578 27650 ft 420 kts 234°
2026-04-25 13:57 26.60602 115.83173 27651 ft 420 kts 234°
2026-04-25 13:58 26.58615 115.80776 27653 ft 421 kts 234°
2026-04-25 13:58 26.56630 115.78381 27655 ft 421 kts 234°
2026-04-25 13:58 26.54643 115.75982 27656 ft 421 kts 234°
2026-04-25 13:58 26.52656 115.73583 27655 ft 420 kts 234°
2026-04-25 13:59 26.50671 115.71192 27657 ft 420 kts 234°
2026-04-25 13:59 26.48682 115.68800 27626 ft 420 kts 234°
2026-04-25 13:59 26.46703 115.66420 27655 ft 418 kts 233°
2026-04-25 13:59 26.44721 115.64037 27661 ft 417 kts 233°
2026-04-25 14:00 26.42747 115.61661 27657 ft 418 kts 234°
2026-04-25 14:00 26.40773 115.59285 27653 ft 419 kts 234°
2026-04-25 14:00 26.38794 115.56898 27648 ft 420 kts 234°
2026-04-25 14:00 26.36809 115.54506 27647 ft 420 kts 234°
2026-04-25 14:01 26.34824 115.52117 27647 ft 421 kts 234°
2026-04-25 14:01 26.32831 115.49726 27647 ft 421 kts 234°
2026-04-25 14:01 26.30835 115.47336 27649 ft 421 kts 234°
2026-04-25 14:01 26.28840 115.44947 27647 ft 421 kts 234°
2026-04-25 14:02 26.26837 115.42550 27609 ft 421 kts 233°
2026-04-25 14:02 26.24848 115.40173 27640 ft 418 kts 233°
2026-04-25 14:02 26.22870 115.37808 27656 ft 417 kts 233°
2026-04-25 14:02 26.21562 115.36245 27661 ft 416 kts 233°
2026-04-25 14:03 26.18954 115.33127 27666 ft 415 kts 233°
2026-04-25 14:03 26.16986 115.30773 27656 ft 416 kts 234°
2026-04-25 14:03 26.15009 115.28414 27635 ft 417 kts 234°
2026-04-25 14:03 26.13029 115.26055 27634 ft 417 kts 234°
2026-04-25 14:04 26.11052 115.23698 27634 ft 418 kts 234°
2026-04-25 14:04 26.09066 115.21332 27635 ft 418 kts 234°
2026-04-25 14:04 26.07080 115.18967 27635 ft 419 kts 234°
2026-04-25 14:04 26.05089 115.16598 27649 ft 419 kts 234°
2026-04-25 14:05 26.03101 115.14232 27642 ft 419 kts 234°
2026-04-25 14:05 26.01112 115.11865 27640 ft 419 kts 234°
2026-04-25 14:05 25.99122 115.09498 27637 ft 419 kts 234°
2026-04-25 14:05 25.97131 115.07131 27652 ft 419 kts 234°
2026-04-25 14:06 25.95140 115.04766 27643 ft 419 kts 234°
2026-04-25 14:06 25.93146 115.02396 27640 ft 420 kts 234°
2026-04-25 14:06 25.91151 115.00027 27637 ft 420 kts 234°
2026-04-25 14:06 25.89154 114.97656 27629 ft 421 kts 234°
2026-04-25 14:07 25.87146 114.95277 27627 ft 423 kts 234°
2026-04-25 14:07 25.85133 114.92896 27628 ft 424 kts 234°
2026-04-25 14:07 25.83035 114.90577 27629 ft 432 kts 226°
2026-04-25 14:07 25.80381 114.88908 27627 ft 448 kts 208°
2026-04-25 14:08 25.77487 114.87626 27649 ft 446 kts 211°
2026-04-25 14:08 25.74685 114.86174 27663 ft 442 kts 214°
2026-04-25 14:08 25.71961 114.84612 27669 ft 440 kts 215°
2026-04-25 14:08 25.69265 114.83004 27672 ft 439 kts 216°
2026-04-25 14:09 25.66572 114.81405 27669 ft 440 kts 215°
2026-04-25 14:09 25.63858 114.79838 27668 ft 440 kts 214°
2026-04-25 14:09 25.61128 114.78312 27670 ft 440 kts 214°
2026-04-25 14:09 25.59307 114.77318 27668 ft 440 kts 213°
2026-04-25 14:10 25.55617 114.75331 27634 ft 441 kts 213°
2026-04-25 14:10 25.52863 114.73851 27645 ft 440 kts 213°
2026-04-25 14:10 25.50113 114.72364 27654 ft 439 kts 213°
2026-04-25 14:10 25.47375 114.70876 27659 ft 439 kts 213°
2026-04-25 14:11 25.44675 114.69404 27661 ft 438 kts 213°
2026-04-25 14:11 25.41942 114.67909 27662 ft 438 kts 213°
2026-04-25 14:11 25.39173 114.66392 27661 ft 438 kts 213°
2026-04-25 14:11 25.36447 114.64900 27661 ft 438 kts 213°
2026-04-25 14:12 25.33751 114.63428 27661 ft 438 kts 213°
2026-04-25 14:12 25.31020 114.61940 27661 ft 438 kts 213°
2026-04-25 14:12 25.28295 114.60457 27636 ft 437 kts 213°
2026-04-25 14:12 25.25528 114.58955 27644 ft 437 kts 213°
2026-04-25 14:13 25.22836 114.57495 27646 ft 436 kts 213°
2026-04-25 14:13 25.20103 114.56015 27558 ft 443 kts 213°
2026-04-25 14:13 25.17320 114.54502 27300 ft 448 kts 213°
2026-04-25 14:13 25.14512 114.52979 27049 ft 449 kts 213°
2026-04-25 14:14 25.11712 114.51462 26807 ft 448 kts 212°
2026-04-25 14:14 25.08918 114.49949 26564 ft 447 kts 212°
2026-04-25 14:14 25.06124 114.48436 26321 ft 447 kts 212°
2026-04-25 14:14 25.03337 114.46927 26053 ft 445 kts 212°
2026-04-25 14:15 25.00563 114.45428 25819 ft 443 kts 212°
2026-04-25 14:15 24.99632 114.44925 25735 ft 442 kts 212°
2026-04-25 14:15 24.95056 114.42448 25349 ft 440 kts 212°
2026-04-25 14:15 24.92321 114.40969 25117 ft 438 kts 212°
2026-04-25 14:16 24.89586 114.39490 24880 ft 437 kts 212°
2026-04-25 14:16 24.86864 114.38019 24641 ft 437 kts 212°
2026-04-25 14:16 24.84123 114.36541 24412 ft 439 kts 212°
2026-04-25 14:16 24.81376 114.35060 24191 ft 439 kts 212°
2026-04-25 14:17 24.78633 114.33584 23964 ft 439 kts 212°
2026-04-25 14:17 24.75897 114.32112 23743 ft 436 kts 211°
2026-04-25 14:17 24.73184 114.30655 23639 ft 433 kts 211°
2026-04-25 14:17 24.70479 114.29201 23671 ft 433 kts 211°
2026-04-25 14:18 24.67769 114.27743 23669 ft 433 kts 212°
2026-04-25 14:18 24.65055 114.26281 23502 ft 442 kts 212°
2026-04-25 14:18 24.62257 114.24769 23232 ft 451 kts 211°
2026-04-25 14:18 24.59436 114.23249 22976 ft 452 kts 211°
2026-04-25 14:19 24.56605 114.21730 22711 ft 452 kts 211°
2026-04-25 14:19 24.53786 114.20219 22453 ft 451 kts 211°
2026-04-25 14:19 24.50971 114.18711 22176 ft 450 kts 211°
2026-04-25 14:19 24.48160 114.17206 21923 ft 448 kts 211°
2026-04-25 14:20 24.45368 114.15714 21674 ft 446 kts 211°
2026-04-25 14:20 24.44466 114.15232 21581 ft 446 kts 211°
2026-04-25 14:20 24.39805 114.12732 21179 ft 443 kts 211°
2026-04-25 14:20 24.37039 114.11251 20928 ft 443 kts 211°
2026-04-25 14:21 24.34263 114.09790 20689 ft 442 kts 210°
2026-04-25 14:21 24.31489 114.08352 20446 ft 441 kts 210°
2026-04-25 14:21 24.28709 114.06915 20206 ft 440 kts 211°
2026-04-25 14:21 24.26088 114.05232 19969 ft 436 kts 217°
2026-04-25 14:22 24.23522 114.03460 19727 ft 435 kts 217°
2026-04-25 14:22 24.20968 114.01691 19485 ft 434 kts 217°
2026-04-25 14:22 24.18423 113.99924 19254 ft 433 kts 217°
2026-04-25 14:22 24.15885 113.98161 19025 ft 432 kts 217°
2026-04-25 14:23 24.13354 113.96402 18795 ft 431 kts 217°
2026-04-25 14:23 24.10860 113.94599 18566 ft 426 kts 222°
2026-04-25 14:23 24.08637 113.92489 18340 ft 422 kts 226°
2026-04-25 14:23 24.06460 113.90338 18086 ft 421 kts 226°
2026-04-25 14:24 24.04289 113.88199 17820 ft 420 kts 226°
2026-04-25 14:24 24.02114 113.86063 17567 ft 420 kts 226°
2026-04-25 14:24 23.99974 113.83966 17321 ft 419 kts 226°
2026-04-25 14:24 23.97806 113.81840 17055 ft 418 kts 226°
2026-04-25 14:25 23.95645 113.79719 16796 ft 417 kts 226°
2026-04-25 14:25 23.93494 113.77606 16561 ft 416 kts 226°
2026-04-25 14:25 23.91347 113.75494 16315 ft 415 kts 226°
2026-04-25 14:25 23.90621 113.74781 16220 ft 414 kts 226°
2026-04-25 14:26 23.87064 113.71290 15821 ft 414 kts 225°
2026-04-25 14:26 23.84919 113.69189 15580 ft 413 kts 225°
2026-04-25 14:26 23.82780 113.67095 15335 ft 413 kts 225°
2026-04-25 14:26 23.80643 113.65005 15090 ft 411 kts 225°
2026-04-25 14:27 23.78517 113.62928 14865 ft 411 kts 225°
2026-04-25 14:27 23.76390 113.60848 14626 ft 410 kts 225°
2026-04-25 14:27 23.74266 113.58773 14389 ft 409 kts 225°
2026-04-25 14:27 23.72149 113.56703 14158 ft 408 kts 225°
2026-04-25 14:28 23.70035 113.54635 13939 ft 408 kts 225°
2026-04-25 14:28 23.67925 113.52574 13814 ft 407 kts 225°
2026-04-25 14:28 23.65814 113.50512 13846 ft 408 kts 225°
2026-04-25 14:28 23.63700 113.48444 13841 ft 408 kts 225°
2026-04-25 14:29 23.61586 113.46380 13840 ft 408 kts 225°
2026-04-25 14:29 23.59466 113.44316 13840 ft 408 kts 225°
2026-04-25 14:29 23.57346 113.42253 13834 ft 408 kts 225°
2026-04-25 14:29 23.55213 113.40207 13832 ft 409 kts 222°
2026-04-25 14:30 23.52841 113.38478 13829 ft 413 kts 211°
2026-04-25 14:30 23.47449 113.36221 13831 ft 417 kts 201°
2026-04-25 14:30 23.44700 113.35195 13829 ft 417 kts 201°
2026-04-25 14:31 23.41958 113.34172 13829 ft 417 kts 201°
2026-04-25 14:31 23.39219 113.33144 13829 ft 416 kts 201°
2026-04-25 14:31 23.36476 113.32112 13829 ft 416 kts 202°
2026-04-25 14:31 23.33743 113.31080 13829 ft 417 kts 202°
2026-04-25 14:32 23.31001 113.30043 13829 ft 417 kts 202°
2026-04-25 14:32 23.28266 113.29007 13432 ft 415 kts 201°
2026-04-25 14:32 23.25552 113.27983 12920 ft 408 kts 201°
2026-04-25 14:32 23.22909 113.26991 12671 ft 396 kts 201°
2026-04-25 14:33 23.20322 113.26022 12418 ft 391 kts 201°
2026-04-25 14:33 23.17763 113.25061 12179 ft 388 kts 201°
2026-04-25 14:33 23.15217 113.24107 11935 ft 386 kts 201°
2026-04-25 14:33 23.12681 113.23155 11811 ft 385 kts 201°
2026-04-25 14:34 23.10153 113.22206 11826 ft 385 kts 201°
2026-04-25 14:34 23.07642 113.21263 11828 ft 385 kts 201°
2026-04-25 14:34 23.05087 113.20388 11832 ft 386 kts 195°
2026-04-25 14:34 23.02453 113.19999 11831 ft 388 kts 183°
2026-04-25 14:35 22.99753 113.20169 11831 ft 390 kts 172°
2026-04-25 14:35 22.97126 113.20877 11832 ft 391 kts 162°
2026-04-25 14:35 22.94534 113.21776 11832 ft 391 kts 163°
2026-04-25 14:35 22.91948 113.22665 11831 ft 386 kts 163°
2026-04-25 14:36 22.89451 113.23521 11829 ft 366 kts 163°
2026-04-25 14:36 22.87059 113.24340 11829 ft 357 kts 163°
2026-04-25 14:36 22.84707 113.25146 11829 ft 355 kts 163°
2026-04-25 14:36 22.83144 113.25683 11829 ft 354 kts 163°
2026-04-25 14:37 22.80001 113.26764 11830 ft 354 kts 163°
2026-04-25 14:37 22.77657 113.27570 11829 ft 354 kts 163°
2026-04-25 14:37 22.76100 113.28104 11829 ft 354 kts 163°
2026-04-25 14:37 22.73745 113.28914 11662 ft 354 kts 163°
2026-04-25 14:38 22.71426 113.29711 11424 ft 345 kts 163°
2026-04-25 14:38 22.69173 113.30484 11185 ft 337 kts 163°
2026-04-25 14:38 22.66961 113.31242 10950 ft 329 kts 163°
2026-04-25 14:38 22.64807 113.31979 10716 ft 321 kts 162°
2026-04-25 14:39 22.62701 113.32702 10484 ft 314 kts 162°
2026-04-25 14:39 22.60641 113.33410 10258 ft 307 kts 162°
2026-04-25 14:39 22.58626 113.34103 10016 ft 300 kts 162°
2026-04-25 14:39 22.56660 113.34780 9776 ft 294 kts 162°
2026-04-25 14:40 22.55346 113.35233 9603 ft 292 kts 162°
2026-04-25 14:40 22.52800 113.36112 9265 ft 289 kts 162°
2026-04-25 14:40 22.50891 113.36769 9019 ft 287 kts 162°
2026-04-25 14:40 22.48993 113.37421 8770 ft 286 kts 162°
2026-04-25 14:41 22.47103 113.38072 8523 ft 284 kts 162°
2026-04-25 14:41 22.45203 113.38634 8276 ft 283 kts 173°
2026-04-25 14:41 22.43261 113.38501 8036 ft 281 kts 197°
2026-04-25 14:41 22.41469 113.37685 7797 ft 280 kts 206°
2026-04-25 14:42 22.39711 113.36783 7555 ft 279 kts 206°
2026-04-25 14:42 22.38530 113.36176 7396 ft 278 kts 206°
2026-04-25 14:42 22.36225 113.34991 7092 ft 277 kts 205°
2026-04-25 14:42 22.34490 113.34101 6934 ft 275 kts 205°
2026-04-25 14:43 22.32759 113.33214 6908 ft 275 kts 205°
2026-04-25 14:43 22.31038 113.32333 6907 ft 268 kts 205°
2026-04-25 14:43 22.29402 113.31497 6906 ft 252 kts 205°
2026-04-25 14:43 22.27855 113.30706 6908 ft 242 kts 205°
2026-04-25 14:44 22.26338 113.29931 6912 ft 241 kts 205°
2026-04-25 14:44 22.24823 113.29156 6912 ft 241 kts 205°
2026-04-25 14:44 22.23305 113.28382 6912 ft 241 kts 205°
2026-04-25 14:44 22.21791 113.27609 6912 ft 241 kts 205°
2026-04-25 14:45 22.20279 113.26837 6913 ft 241 kts 205°
2026-04-25 14:45 22.18765 113.26064 6912 ft 241 kts 205°
2026-04-25 14:45 22.17248 113.25289 6835 ft 241 kts 205°
2026-04-25 14:45 22.15734 113.24517 6707 ft 240 kts 205°
2026-04-25 14:46 22.14226 113.23747 6561 ft 239 kts 205°
2026-04-25 14:46 22.12732 113.22983 6424 ft 238 kts 205°
2026-04-25 14:46 22.11241 113.22220 6274 ft 237 kts 205°
2026-04-25 14:46 22.09772 113.21473 6130 ft 236 kts 205°
2026-04-25 14:47 22.08272 113.20710 5979 ft 235 kts 205°
2026-04-25 14:47 22.07291 113.20212 5881 ft 235 kts 205°
2026-04-25 14:47 22.05334 113.19217 5692 ft 234 kts 205°
2026-04-25 14:47 22.03867 113.18468 5532 ft 233 kts 205°
2026-04-25 14:48 22.02421 113.17732 5392 ft 232 kts 205°
2026-04-25 14:48 22.00947 113.16981 5240 ft 230 kts 205°
2026-04-25 14:48 21.99521 113.16255 5100 ft 229 kts 205°
2026-04-25 14:48 21.98105 113.15533 4957 ft 224 kts 205°
2026-04-25 14:49 21.96727 113.14831 4833 ft 218 kts 205°
2026-04-25 14:49 21.95371 113.14139 4682 ft 211 kts 205°
2026-04-25 14:49 21.94083 113.13482 4545 ft 198 kts 204°
2026-04-25 14:49 21.92852 113.12855 4400 ft 194 kts 204°
2026-04-25 14:50 21.91624 113.12267 4250 ft 193 kts 198°
2026-04-25 14:50 21.90316 113.11999 4101 ft 192 kts 181°
2026-04-25 14:50 21.88992 113.12131 3953 ft 191 kts 166°
2026-04-25 14:50 21.87759 113.12646 3805 ft 190 kts 149°
2026-04-25 14:51 21.86709 113.13492 3668 ft 189 kts 134°
2026-04-25 14:51 21.85795 113.14503 3518 ft 188 kts 133°
2026-04-25 14:51 21.84883 113.15505 3374 ft 187 kts 132°
2026-04-25 14:51 21.84169 113.16655 3225 ft 185 kts 112°
2026-04-25 14:52 21.83873 113.17991 3103 ft 184 kts 93°
2026-04-25 14:52 21.84024 113.19354 3026 ft 185 kts 73°
2026-04-25 14:52 21.84611 113.20579 3012 ft 187 kts 53°
2026-04-25 14:52 21.85213 113.21268 3008 ft 188 kts 46°
2026-04-25 14:53 21.86443 113.22569 3016 ft 187 kts 46°
2026-04-25 14:53 21.87368 113.23547 3009 ft 186 kts 46°
2026-04-25 14:53 21.88294 113.24529 2919 ft 186 kts 45°
2026-04-25 14:53 21.89217 113.25507 2714 ft 186 kts 45°
2026-04-25 14:54 21.90139 113.26484 2499 ft 186 kts 46°
2026-04-25 14:54 21.91053 113.27453 2258 ft 180 kts 46°
2026-04-25 14:54 21.91914 113.28365 2029 ft 169 kts 46°
2026-04-25 14:54 21.92732 113.29232 1822 ft 160 kts 46°
2026-04-25 14:55 21.93504 113.30052 1626 ft 155 kts 46°
2026-04-25 14:55 21.94249 113.30841 1412 ft 144 kts 47°
2026-04-25 14:55 21.94950 113.31586 1229 ft 140 kts 46°
2026-04-25 14:55 21.95639 113.32316 1046 ft 138 kts 47°
2026-04-25 14:56 21.96321 113.33041 875 ft 138 kts 47°
2026-04-25 14:56 21.97001 113.33762 718 ft 137 kts 46°
2026-04-25 14:56 21.97674 113.34479 550 ft 136 kts 46°
2026-04-25 14:56 21.98347 113.35190 326 ft 135 kts 46°
2026-04-25 14:57 21.99017 113.35903 160 ft 136 kts 46°
2026-04-25 14:57 21.99689 113.36612 36 ft 131 kts 46°
2026-04-25 14:57 22.00206 113.37169 27 ft 66 kts 44°
2026-04-25 14:57 22.00404 113.37378 28 ft 33 kts 44°
2026-04-25 14:58 22.00552 113.37536 29 ft 25 kts 45°
2026-04-25 14:58 22.00681 113.37650 30 ft 21 kts 31°
2026-04-25 14:58 22.00803 113.37702 28 ft 18 kts 16°
2026-04-25 14:58 22.00884 113.37707 28 ft 9 kts 328°
2026-04-25 14:59 22.00896 113.37653 28 ft 7 kts 251°
2026-04-25 14:59 22.00865 113.37616 28 ft 6 kts 223°
2026-04-25 14:59 22.00836 113.37585 28 ft 6 kts 225°
2026-04-25 14:59 22.00811 113.37555 28 ft 6 kts 241°
2026-04-25 15:00 22.00826 113.37507 28 ft 8 kts 314°
2026-04-25 15:00 22.00862 113.37469 28 ft 7 kts 315°
2026-04-25 15:00 22.00895 113.37433 28 ft 6 kts 315°
2026-04-25 15:00 22.00924 113.37402 28 ft 6 kts 315°
2026-04-25 15:01 22.00950 113.37374 28 ft 5 kts 315°
2026-04-25 15:01 22.00987 113.37366 28 ft 5 kts 20°
2026-04-25 15:01 22.01012 113.37389 28 ft 4 kts 44°
2026-04-25 15:01 22.01021 113.37398 28 ft 1 kts 45°
2026-04-25 15:02 22.01021 113.37399 28 ft 0 kts 45°